Location: Armour Pugh Memorial Park
(43.1391°N, 93.4191°W)
Time: 04:47:02
(UTC+00:00)

Daily predictions for brighter satellites

Satellite Brightness Start Highest point End
(mag) Time Altitude Azimuth Time Altitude Azimuth Time Altitude Azimuth
SL-8 Rocket 4.5 01:11:16 10° N 01:17:04 40° ENE 01:22:49 10° SE
ADEOS 3.9 01:12:22 10° S 01:17:33 74° WSW 01:22:47 10° NNW
Cosmos 1441 Rocket 3.3 01:16:22 10° SSW 01:20:05 81° W 01:23:51 10° N
APEX 4.3 01:19:21 10° NW 01:22:24 35° WSW 01:25:13 10° S
SPOT 1/Viking Rocket 3.7 01:20:44 10° SSE 01:25:48 55° ENE 01:30:55 10° N
Cosmos 2341 Rocket 4.2 01:22:12 10° N 01:28:23 54° ENE 01:34:27 10° SSE
Cosmos 1674 Rocket 3.7 01:24:29 10° N 01:28:56 82° W 01:33:22 10° S
Cosmos 1825 2.3 01:26:00 10° N 01:29:18 42° ENE 01:32:35 10° SSE
CZ-4B R/B 3.4 01:25:44 10° SSE 01:31:13 56° ENE 01:36:42 10° N
Okean-O 4.3 01:29:03 10° ESE 01:31:59 18° ENE 01:34:56 10° NNE
USA 234 3.3 01:29:16 10° SE 01:35:49 87° NE 01:42:24 10° NW
Cosmos 2082 Rocket 4.3 01:31:45 10° NW 01:36:35 29° WSW 01:41:22 10° SSW
NOSS 3-1 (C) 3.7 01:33:52 10° S 01:37:58 29° ESE 01:42:38 10° NE
Cosmos 2344 4.1 01:34:24 10° SW 01:41:56 61° NW 01:49:16 10° NNE
Resurs 1-3 3.8 01:39:53 10° S 01:44:13 75° W 01:48:35 10° NNW
IKONOS-2 4.5 01:42:36 10° NNE 01:46:51 88° ESE 01:51:03 10° SSW
Cosmos 2366 rocket 4.1 01:41:42 10° N 01:48:00 62° E 01:54:16 10° SSE
Cosmos 1025 Rocket 3.0 01:45:28 10° N 01:49:48 64° E 01:54:08 10° SSE
Okean O Rocket 1.7 01:49:55 10° SSE 01:54:08 54° ENE 01:58:24 10° N
NOSS 2-3 (C) 4.4 01:50:49 10° WSW 01:54:20 46° NW 01:58:14 10° NNE
Cosmos 2218 Rocket 4.1 01:48:57 10° N 01:55:21 68° E 02:01:40 10° SSE
ATLAS 3B R/B 3.4 01:53:34 10° SSE 01:59:29 31° ESE 02:05:44 10° NE
NOSS 2-3 (D) 4.5 01:55:59 10° WSW 01:59:29 44° NW 02:03:23 10° NNE
Resurs 01 Rocket 1.6 01:55:27 10° SSE 01:59:48 64° ENE 02:04:11 10° N
Cosmos 1975 Rocket 3.3 01:57:43 10° N 02:01:54 45° ENE 02:05:11 15° SSE
CARTOSAT-1 3.6 01:58:16 10° SSE 02:02:26 60° ENE 02:06:39 10° N
Cosmos 1346 Rocket 2.7 01:59:11 10° S 02:03:01 85° WNW 02:06:51 10° N
Cosmos 1821 Rocket 4.3 01:57:38 10° N 02:03:34 45° ENE 02:08:32 14° SE
USA 129 1.6 02:01:47 10° NNE 02:04:27 57° E 02:05:08 34° SSE
SJ-6B 4.2 02:00:51 10° SSW 02:04:33 40° W 02:08:19 10° NNW
USA 281 3.3 01:59:34 12° SE 02:05:30 61° ENE 02:11:58 10° NNW
Cosmos 1959 Rocket 4.4 01:59:25 10° N 02:05:34 76° E 02:11:44 10° SSE
Cosmos 1328 3.8 02:03:29 10° N 02:07:15 78° W 02:11:02 10° S
Cosmos 1302 Rocket 4.1 02:02:50 10° SSW 02:08:06 84° WNW 02:13:23 10° NNE
SL-27 R/B 3.8 02:08:13 10° NNE 02:10:14 17° ENE 02:10:18 17° ENE
OAO 3 Rocket 4.2 02:06:48 10° WSW 02:11:06 31° S 02:13:29 21° SE
Meteor 1-21 Rocket 4.4 02:06:57 10° N 02:12:54 87° W 02:18:50 10° S
Cosmos 1892 4.2 02:12:31 10° NNW 02:15:48 34° W 02:19:02 10° SSW
Cosmos 1782 Rocket 3.7 02:12:16 10° SSW 02:16:37 78° W 02:21:02 10° N
USA 186 3.0 02:16:59 10° S 02:19:54 38° W 02:22:47 10° NNW
CZ-4 R/B 3.4 02:21:32 10° SSW 02:24:54 26° W 02:28:14 10° NW
ATLAS 5 CENTAUR R/B 1.1 02:21:56 10° SSW 02:25:06 45° ESE 02:28:31 10° NE
SL-4 R/B 3.7 02:22:37 10° WNW 02:25:42 25° NNW 02:28:40 10° NE
SPOT 5 3.6 02:24:44 25° ESE 02:27:13 41° ENE 02:32:10 10° N
Cosmos 2151 Rocket 4.4 02:28:53 28° E 02:29:06 28° E 02:32:53 10° NNE
Cosmos 1455 3.6 02:25:55 10° SSW 02:29:14 37° WNW 02:32:35 10° N
BREEZE-M R/B 4.0 02:27:28 10° NW 02:29:27 19° N 02:30:33 15° NE
Meteor 1-11 4.2 02:27:03 10° N 02:32:43 73° ENE 02:36:33 22° SSE
ERS-1 Rocket 3.8 02:36:15 28° E 02:37:30 32° ENE 02:41:56 10° N
Cosmos 1300 Rocket 4.4 02:38:52 10° SSW 02:43:06 50° WNW 02:47:23 10° N
Celestis-02/Orion 38 4.5 02:40:45 33° SE 02:43:06 77° ENE 02:48:11 10° NNW
MOS 1 4.2 02:45:26 27° SSE 02:48:42 83° ENE 02:54:27 10° NNW
Cosmos 1934 Rocket 4.4 02:43:47 10° N 02:49:38 44° ENE 02:51:27 35° ESE
In-Cosmos 22 Rocket 4.4 02:45:22 10° NNW 02:50:43 67° W 02:54:48 18° S
SJ 16-02 2.7 02:47:12 10° NW 02:51:10 36° WSW 02:54:07 16° SSW
Okean 2 Rocket 3.3 02:52:04 47° ESE 02:52:16 48° E 02:56:37 10° NNE
CZ-4C R/B 3.6 02:51:14 10° N 02:54:38 55° WNW 02:56:34 22° SW
Cosmos 371 Rocket 4.0 02:53:40 10° N 02:58:06 36° ENE 02:58:27 35° ENE
Cosmos 2297 Rocket 3.6 02:53:55 10° N 02:58:22 23° NE 02:59:36 22° ENE
COSMOS 2455 4.5 02:54:16 10° N 02:58:43 21° NE 03:00:56 17° ENE
IRS-1C Rocket 4.0 02:56:50 40° SSE 02:58:47 79° ENE 03:04:05 10° NNW
Cosmos 2369 Rocket 4.3 02:56:00 10° WSW 03:00:50 28° NW 03:05:39 10° N
Cosmos 1503 Rocket 4.5 02:55:46 10° N 03:00:55 45° ENE 03:01:49 41° E
NOSS 3-1 (A) 2.8 02:59:54 10° SSW 03:04:41 68° ESE 03:10:21 10° NE
Cosmos 2098 Rocket 4.4 03:00:39 10° SSW 03:05:49 44° W 03:10:06 10° N
MetOp-B 4.1 03:05:02 41° SSE 03:07:01 87° WSW 03:12:25 10° NNW
Sich 1 Rocket 3.4 03:07:42 71° ESE 03:07:51 72° E 03:12:17 10° NNE
Spot 2 Rocket 3.8 03:07:30 46° E 03:07:57 47° ENE 03:12:47 10° N
Okean-O 3.4 03:06:02 28° SSW 03:08:00 48° W 03:12:16 10° NNW
Terra 2.0 03:09:26 51° E 03:09:36 52° ENE 03:14:11 10° N
Cosmos 304 Rocket 4.4 03:10:06 10° N 03:14:28 41° ENE 03:14:28 41° ENE
MOS 1 Rocket 4.5 03:22:06 27° NE 03:22:06 27° NE 03:24:48 10° N
IRS-1A Rocket 4.4 03:20:51 43° S 03:22:54 76° WSW 03:28:50 10° NNW
USA 245 4.0 03:22:34 59° SSE 03:23:42 88° ENE 03:28:44 10° NNW
Ariane Rocket 2.8 03:27:13 72° E 03:27:21 72° ENE 03:32:24 10° N
Cosmos 1656 4.3 03:29:29 40° ENE 03:29:29 40° ENE 03:33:21 10° NE
NOSS 3-1 (C) 4.3 03:23:45 10° WSW 03:28:25 41° NW 03:34:01 10° NNE
Okean 1 Rocket 3.6 03:29:40 50° NNE 03:29:40 50° NNE 03:33:04 10° NNE
Okean O Rocket 4.3 03:28:25 10° WSW 03:30:45 14° W 03:33:06 10° WNW
Cosmos 1241 Rocket 4.3 03:26:58 10° NNW 03:33:17 88° ENE 03:34:21 64° SE
SPOT 3 Rocket 3.4 03:34:30 75° E 03:34:32 75° ENE 03:39:45 10° N
Resurs 01 Rocket 4.4 03:34:49 10° WSW 03:36:40 12° W 03:38:31 10° WNW
Cosmos 1486 Rocket 4.4 03:34:09 10° NNW 03:39:14 54° WSW 03:39:52 50° SW
ATLAS 3B R/B 3.2 03:42:45 10° SW 03:49:44 62° NW 03:57:15 10° NNE
Iridium 4 Rocket 3.8 03:49:30 59° SW 03:50:12 65° W 03:55:52 10° N
Cosmos 1605 Rocket 3.9 03:48:44 10° N 03:55:10 84° E 03:55:30 80° SE
Cosmos 1932 4.3 03:52:01 10° NW 03:58:15 77° WSW 03:58:24 77° SW
SL-4 R/B 4.4 04:02:36 10° NW 04:04:04 17° NNW 04:04:04 17° NNW
ATLAS 5 CENTAUR R/B 4.0 04:07:00 10° WNW 04:09:19 16° NW 04:11:46 10° N
Cosmos 2227 Rocket 3.0 04:08:23 10° NNW 04:12:58 41° NE 04:12:58 41° NE
ERS-1 Rocket 4.3 04:16:12 31° W 04:16:13 31° W 04:20:40 10° NNW
Cosmos 1727 Rocket 4.2 04:24:15 62° NNE 04:24:15 62° NNE 04:29:28 10° N
Cosmos 1697 Rocket 4.2 04:30:32 28° NE 04:30:32 28° NE 04:33:08 10° NNE
Cosmos 2100 Rocket 4.5 04:22:03 10° N 04:27:14 51° NE 04:27:14 51° NE
CZ-4C R/B 3.3 04:28:38 10° NNW 04:35:40 55° NE 04:36:24 54° ENE
Cosmos 2297 Rocket 3.0 04:37:17 10° NNW 04:41:24 46° NW 04:41:24 46° NW
COSMOS 2455 3.4 04:39:22 10° NNW 04:44:04 56° NNW 04:44:04 56° NNW
Terra 4.1 04:48:09 17° W 04:48:09 17° W 04:50:37 10° NW
Cosmos 2219 4.3 04:44:58 10° NNW 04:48:52 38° NNE 04:48:52 38° NNE
USA 229 DEB 4.1 05:03:21 54° NW 05:03:21 54° NW 05:09:57 10° NNE
USA 229 4.1 05:03:34 54° NW 05:03:34 54° NW 05:10:04 10° NNE
CENTAUR R/B 3.5 05:06:23 10° NNW 05:14:31 58° NE 05:15:26 56° ENE
Cosmos 2263 Rocket 3.5 05:12:14 10° NNW 05:15:40 35° N 05:15:40 35° N
Cosmos 2227 Rocket 4.3 05:52:51 10° NW 05:54:46 19° WNW 05:54:46 19° WNW
Cosmos 1980 Rocket 3.7 06:02:44 32° N 06:02:44 32° N 06:05:56 10° NNE
Cosmos 1844 Rocket 4.5 05:59:20 10° N 06:02:55 26° NNE 06:02:55 26° NNE
USA 267 4.3 06:04:36 31° ENE 06:06:48 39° NNE 06:12:47 10° NW
CZ-4C R/B 4.1 06:17:12 10° NW 06:21:30 33° WNW 06:21:30 33° WNW
NOSS 3-2 (A) 4.3 06:17:58 10° NW 06:24:01 63° NW 06:24:01 63° NW
Cosmos 2333 Rocket 3.9 06:52:51 26° NE 06:52:51 26° NE 06:55:31 10° NE
Cosmos 2360 Rocket 3.8 06:56:51 29° NE 06:56:51 29° NE 06:59:43 10° NNE
Cosmos 2322 Rocket 3.5 07:06:40 36° NNE 07:06:40 36° NNE 07:09:53 10° NNE
CENTAUR R/B 4.1 06:57:18 10° NW 07:02:34 36° WNW 07:02:34 36° WNW
Cosmos 2219 Rocket 3.8 07:14:08 27° ENE 07:14:08 27° ENE 07:17:09 10° NE
USA 215 3.6 07:09:32 10° NE 07:15:22 61° N 07:15:22 61° N
SL-16 R/B 3.5 07:22:36 36° NNW 07:22:36 36° NNW 07:26:19 10° NNE
NOSS 3-4 (A) 4.4 07:26:04 38° NE 07:26:04 38° NE 07:29:46 10° NE
NOSS 3-4 (C) 4.4 07:26:07 38° ENE 07:26:07 38° ENE 07:29:50 10° NE
ADEOS II 3.9 07:33:10 10° NE 07:36:45 23° E 07:36:45 23° E
NOSS 3-2 (C) 4.5 07:30:37 10° NW 07:36:11 50° WNW 07:36:11 50° WNW
USA 267 3.9 07:51:52 43° NW 07:51:52 43° NW 07:56:01 10° NW
CZ-2D R/B 3.1 07:45:22 10° NNE 07:49:32 42° ENE 07:49:32 42° ENE
Cosmos 1634 Rocket 4.3 07:45:26 10° N 07:50:41 64° N 07:50:41 64° N
SL-16 R/B 3.9 07:51:52 20° ESE 07:55:16 35° ENE 08:00:46 10° N
COSMOS 2428 3.3 08:10:38 52° E 08:10:38 52° E 08:15:41 10° NNE
BlueWalker 3 4.4 08:15:54 21° NNE 08:15:54 21° NNE 08:18:36 10° ENE
CZ-2C R/B 2.9 08:17:16 68° NE 08:17:16 68° NE 08:22:25 10° N
Cosmos 2237 Rocket 3.8 08:16:42 23° ESE 08:17:46 24° ESE 08:22:12 10° NE
Lacrosse 5 2.8 08:21:30 41° NNW 08:21:30 41° NNW 08:25:51 10° NE
Cosmos 44 Rocket 4.0 08:23:32 54° N 08:23:32 54° N 08:27:44 10° NNE
CZ-2C R/B 3.5 08:18:35 10° NNE 08:23:30 55° E 08:23:30 55° E
ALOS 3.7 08:19:44 10° NE 08:23:49 30° E 08:23:56 30° E
Cosmos 2322 3.7 08:26:12 79° NNE 08:26:12 79° NNE 08:31:35 10° NNE
NPP 3.9 08:20:58 10° N 08:25:32 59° NNW 08:25:32 59° NNW
Resurs 1-4 Rocket 2.3 08:25:31 10° N 08:30:10 65° NNW 08:30:10 65° NNW
Cosmos 1536 4.4 08:29:38 10° N 08:32:13 32° NE 08:32:13 32° NE
Cosmos 2333 Rocket 3.3 08:34:50 31° NW 08:34:50 31° NW 08:39:37 10° N
Cosmos 2360 Rocket 3.6 08:38:35 26° NW 08:38:35 26° NW 08:43:13 10° N
Cosmos 2279 Rocket 4.2 08:35:36 10° NNW 08:41:09 54° WNW 08:41:09 54° WNW
Nadezhda 4 Rocket 3.9 08:44:01 63° S 08:45:04 82° E 08:51:12 10° N
Cosmos 1538 Rocket 3.9 08:48:33 82° SSE 08:48:45 85° ESE 08:54:08 10° NNE
Cosmos 2322 Rocket 4.0 08:48:27 17° NW 08:49:00 18° NW 08:52:45 10° N
Okean 1 4.3 08:50:16 44° NE 08:50:16 44° NE 08:53:12 10° NNE
NOSS 0 Rocket 4.1 08:48:14 53° SSE 08:49:29 65° ESE 08:55:35 10° NNE
GP-B 3.5 08:45:30 10° N 08:49:52 59° E 08:49:53 59° E
IDEFIX/ARIANE 42P 3.3 08:45:17 10° N 08:49:33 39° NW 08:49:33 39° NW
Cosmos 2278 Rocket 2.9 08:45:07 10° NNW 08:50:41 53° ENE 08:56:12 10° SE
Meteor 2-17 Rocket 4.4 08:54:21 54° S 08:55:52 85° E 09:02:01 10° N
Cosmos 2219 Rocket 3.1 08:55:50 34° WNW 08:56:00 34° NW 09:01:05 10° N
BREEZE-M DEB (TANK) 4.4 09:00:46 41° SSE 09:01:40 46° SE 09:12:36 10° ENE
Cosmos 1461 3.9 08:58:21 10° NNW 09:02:01 41° NE 09:05:38 10° ESE
Gbstr 26 Del rocket 3.5 09:02:52 49° NNW 09:02:52 49° NNW 09:06:29 10° NE
RESURS DK-1 2.6 09:04:22 66° NNE 09:04:22 66° NNE 09:07:55 10° NNE
MSX 4.4 09:00:37 10° N 09:05:57 39° WNW 09:06:21 39° WNW
SL-16 R/B 4.5 09:04:43 10° SE 09:08:28 18° E 09:12:14 10° ENE
Cosmos 1151 Rocket 3.6 09:07:55 43° SE 09:08:51 52° E 09:13:03 10° NNE
CZ-2C R/B 4.0 09:05:57 10° NNE 09:10:34 32° E 09:14:38 13° SSE
ADEOS II 2.4 09:12:08 10° N 09:17:08 46° WNW 09:17:38 45° W
FENGYUN 3A 3.9 09:17:10 10° N 09:22:23 49° WNW 09:23:20 44° WSW
Meteor 1-19 Rocket 4.3 09:20:01 38° SSW 09:22:25 87° W 09:28:28 10° N
Cosmos 1408 Rocket 4.3 09:18:51 10° NNW 09:21:54 36° NW 09:21:54 36° NW
Cosmos 923 Rocket 4.0 09:23:20 40° S 09:25:14 77° ESE 09:30:31 10° NNE
ATLAS 5 CENTAUR R/B 4.5 09:23:35 10° NNW 09:27:25 23° NE 09:31:51 10° E
Cosmos 1092 Rocket 3.9 09:24:59 30° S 09:28:14 88° W 09:34:24 10° N
CZ-2D R/B 3.3 09:25:57 10° N 09:30:15 25° WNW 09:30:50 25° WNW
Envisat 3.3 09:26:35 10° NNE 09:31:39 65° ESE 09:34:51 23° S
NOSS 2-2 (E) 4.0 09:29:25 10° NW 09:34:09 81° SW 09:40:56 10° SSE
Cosmos 2026 Rocket 3.9 09:32:12 28° SSW 09:35:41 78° W 09:42:05 10° N
BREEZE-M DEB (TANK) 2.9 09:34:05 36° SW 09:36:16 65° SSE 09:39:10 10° ENE
SL-16 R/B 2.9 09:36:56 34° SW 09:38:42 41° W 09:44:33 10° NNW
Cosmos 1805 Rocket 3.7 09:35:25 10° NNW 09:39:36 49° W 09:39:58 47° WSW
EO 1 Delta rocket 3.7 09:35:13 10° N 09:39:52 73° WNW 09:41:49 35° SSW
Cosmos 1500 Rocket 4.1 09:35:59 10° NNW 09:40:03 39° W 09:40:03 39° W
UNK 3.9 09:40:18 43° SW 09:40:56 46° W 09:45:23 10° NNW
Cosmos 1666 Rocket 4.1 09:38:51 10° N 09:43:16 60° E 09:47:38 10° SSE
CZ-4 R/B 3.7 09:42:58 10° N 09:47:43 73° WNW 09:49:59 30° SSW
NOSS 2-2 (D) 4.0 09:44:06 10° NW 09:48:44 83° WSW 09:55:23 10° SSE
Meteor 1-27 Rocket 4.0 09:46:40 31° SW 09:49:02 49° WNW 09:54:35 10° N
Thor Agena Rocket 3.7 09:44:24 10° NNE 09:49:26 68° ESE 09:53:50 14° S
Cosmos 1733 3.2 09:46:08 10° NNW 09:49:38 48° W 09:49:46 48° WSW
Cosmos 1943 Rocket 2.2 09:44:11 10° NNW 09:49:53 87° ENE 09:55:33 10° SSE
YAOGAN 6 2.7 09:48:07 10° NNE 09:51:22 61° ESE 09:53:02 26° S
H-2A R/B 4.2 09:49:01 10° NE 09:53:05 24° E 09:57:12 10° SSE
Meteor 2-4 Rocket 3.7 09:48:37 14° S 09:53:16 79° E 09:58:47 10° NNE
BlueWalker 3 2.3 09:50:36 10° NW 09:54:25 64° NNE 09:58:12 10° ESE
COSMOS 2428 4.0 09:52:37 21° W 09:54:42 26° NW 09:59:27 10° N
NOAA 11 4.1 09:52:06 10° NNE 09:57:35 89° WNW 10:02:19 14° SSW
CZ-2C R/B 4.3 09:58:45 16° WNW 09:58:45 16° WNW 10:01:05 10° NW
ALOS 3.3 09:56:59 10° N 10:00:58 29° WNW 10:02:16 25° W
Cosmos 2237 Rocket 2.5 09:58:31 27° SW 10:01:25 52° WNW 10:07:00 10° NNE
Cosmos 1980 4.1 09:59:54 26° WSW 10:02:45 47° WNW 10:08:13 10° NNE
Cosmos 1867 4.3 09:59:00 10° NW 10:03:42 30° WSW 10:08:21 10° S
Sich 1 4.0 10:01:03 10° NNW 10:04:34 26° W 10:04:47 26° W
Cosmos 2112 Rocket 4.0 10:01:07 20° SSW 10:04:48 78° WNW 10:10:11 10° NNE
Lacrosse 5 4.0 10:01:33 10° NW 10:05:08 19° NNW 10:08:43 10° NNE
Cosmos 1340 Rocket 2.7 10:04:12 28° SSW 10:06:02 59° WNW 10:09:53 10° N
Cosmos 2369 Rocket 4.3 10:04:06 10° N 10:08:58 29° NE 10:13:46 10° ESE
Resurs 1-4 Rocket 4.2 10:08:11 10° NW 10:09:41 11° NW 10:11:11 10° WNW
Cosmos 1805 3.2 10:07:05 10° NNW 10:10:42 52° W 10:13:52 13° S
DMSP B5D2-2 4.1 10:05:32 10° SSE 10:10:43 87° ENE 10:15:57 10° NNW
Cosmos 1328 Rocket 3.5 10:08:30 14° SSW 10:12:14 75° W 10:16:41 10° N
ATLAS 2AS CENTAUR R/B 3.0 10:07:19 13° SSW 10:14:01 77° ESE 10:21:13 10° NE
SWAS 4.3 10:12:45 10° NNW 10:16:56 65° WSW 10:21:04 10° SSE
IRS-1D 3.5 10:15:41 10° N 10:20:44 68° WNW 10:25:53 10° SSW
Chandra Rocket (1) 4.2 10:19:43 10° S 10:21:14 12° SSE 10:23:11 10° SE
CSL-04 DEB 4.4 10:17:05 10° N 10:21:15 78° WNW 10:25:25 10° SSW
Cosmos 1633 Rocket 3.0 10:16:59 10° NNW 10:21:17 64° W 10:25:34 10° S
S3M 4.4 10:16:21 10° N 10:22:29 68° E 10:28:40 10° SSE
Cosmos 2266 Rocket 4.1 10:25:03 10° S 10:31:08 81° E 10:37:12 10° N
Cosmos 1680 Rocket 4.2 10:28:09 16° SW 10:32:01 39° WNW 10:37:00 10° N
Cosmos 2278 Rocket 3.2 10:29:58 10° NW 10:34:21 23° WSW 10:38:43 10° SSW
Iridium 51 4.0 10:34:30 10° SSW 10:37:49 54° W 10:41:07 10° N
Cosmos 1461 4.1 10:37:27 10° WNW 10:39:58 17° WSW 10:42:28 10° SSW
ARIANE 5 R/B 4.5 10:35:40 10° NNE 10:40:19 32° E 10:44:55 10° SSE
Cosmos 1420 Rocket 4.4 10:35:59 10° NW 10:40:53 41° WSW 10:45:46 10° S
Cosmos 2056 Rocket 3.9 10:39:46 10° NNW 10:44:53 45° WSW 10:50:01 10° S
USA 308 2.8 10:41:22 11° SW 10:44:57 68° SE 10:48:51 10° ENE
Cosmos 1674 2.6 10:42:33 10° S 10:45:57 74° E 10:49:24 10° NNE
CZ-2C R/B 3.3 10:44:03 10° N 10:48:39 33° WNW 10:53:12 10° SW
Cosmos 2315 Rocket 4.3 10:43:01 10° N 10:49:14 74° E 10:55:25 10° SSE
Cosmos 494 Rocket 4.0 10:44:08 10° SSW 10:49:17 74° WNW 10:54:27 10° NNE
Cosmos 1766 3.2 10:47:08 10° NNW 10:50:45 55° W 10:54:21 10° S
Cosmos 1939 Rocket 3.3 10:47:20 10° NNE 10:51:05 59° E 10:54:48 10° S
SL-16 R/B 2.3 10:46:22 10° SW 10:51:58 65° WNW 10:57:37 10° NNE
Cosmos 1452 Rocket 4.1 10:46:49 10° NNW 10:52:03 63° ENE 10:57:14 10° SSE
Cosmos 1340 3.7 10:50:12 10° NW 10:52:53 21° W 10:55:31 10° SW
Cosmos 1626 2.9 10:52:17 10° SW 10:55:07 26° WNW 10:57:58 10° NNW
Cosmos 1975 4.2 10:54:46 10° NW 10:57:25 18° W 11:00:06 10° SW
Cosmos 921 Rocket 4.0 10:53:46 10° SW 10:57:28 29° WNW 11:01:16 10° N
KORONAS-FOTON 3.7 10:54:26 10° S 10:58:06 89° E 11:01:47 10° N
Cosmos 1656 Rocket 3.7 10:53:04 10° NNW 10:58:32 84° ENE 11:03:56 10° SSE
NOSS 3-1 (C) 4.2 10:52:21 10° NW 10:59:55 82° SW 11:08:58 10° SSE
Cosmos 1515 Rocket 3.9 10:57:48 10° SSW 11:02:05 47° WNW 11:06:23 10° N
Cosmos 1869 Rocket 4.0 11:01:13 10° N 11:05:34 68° E 11:09:52 10° SSE
CZ-3 R/B 3.9 11:07:56 10° SW 11:20:59 25° S 11:26:40 10° SE
